9M8CWM-13 Weather Reports


time (UTC)temp
F
wind
direction
speed
knots
gust
knots
rain 1hr
in
rain 24hr
in
rain mn
in
humidity
%
barometer
mb
20260504213323 77 0.0 0.0 0.00 0.00 0.00 69
20260504212323 77 0.0 0.0 0.00 0.00 0.00 69
20260504211323 77 0.0 0.0 0.00 0.00 0.00 69
20260504210323 77 0.0 0.0 0.00 0.00 0.00 69
20260504205323 77 0.0 0.0 0.00 0.00 0.00 69
20260504204323 77 0.0 0.0 0.00 0.00 0.00 69
20260504203323 77 0.0 0.0 0.00 0.00 0.00 68
20260504202323 77 0.0 0.0 0.00 0.00 0.00 68
20260504201323 77 0.0 0.0 0.00 0.00 0.00 69
20260504200323 77 0.0 0.0 0.00 0.00 0.00 69
20260504195323 78 0.0 0.0 0.00 0.00 0.00 66
20260504194323 78 0.0 0.0 0.00 0.00 0.00 65
20260504193323 78 0.0 0.0 0.00 0.00 0.00 63
20260504192323 78 0.0 0.0 0.00 0.00 0.00 66
20260504191323 78 0.0 0.0 0.00 0.00 0.00 64
20260504190323 78 0.0 0.0 0.00 0.00 0.00 63
20260504185323 79 0.0 0.0 0.00 0.00 0.00 63
20260504184323 78 0.0 0.0 0.00 0.00 0.00 64
20260504183323 79 0.0 0.0 0.00 0.00 0.00 64
20260504182323 78 0.0 0.0 0.00 0.00 0.00 64
20260504181323 78 0.0 0.0 0.00 0.00 0.00 64
20260504180322 78 0.0 0.0 0.00 0.00 0.00 64
20260504175322 78 0.0 0.0 0.00 0.00 0.00 64
20260504174322 78 0.0 0.0 0.00 0.00 0.00 64
20260504173322 78 0.0 0.0 0.00 0.00 0.00 63
20260504172322 78 0.0 0.0 0.00 0.00 0.00 63
20260504171322 78 0.0 0.0 0.00 0.00 0.00 64
20260504170322 78 0.0 0.0 0.00 0.00 0.00 62
20260504160322 79 0.0 0.0 0.00 0.00 0.00 57
20260504150322 82 0.0 0.0 0.00 0.00 0.00 47
20260504141322 82 0.0 0.0 0.00 0.00 0.00 47
20260504140322 81 0.0 0.0 0.00 0.00 0.00 49
20260504130322 83 0.0 0.0 0.00 0.00 0.00 45
20260504110321 81 0.0 0.0 0.00 0.00 0.00 48
20260504100321 82 0.0 0.0 0.00 0.00 0.00 45
20260504081321 94 0.0 0.0 0.00 0.00 0.00 21
20260504080321 93 0.0 0.0 0.00 0.00 0.00 23
20260504070321 96 0.0 0.0 0.00 0.00 0.00 22
20260504050321 86 0.0 0.0 0.00 0.00 0.00 45
20260504045321 85 0.0 0.0 0.00 0.00 0.00 35
20260504044321 86 0.0 0.0 0.00 0.00 0.00 35
20260504043320 86 0.0 0.0 0.00 0.00 0.00 38
20260504042320 89 0.0 0.0 0.00 0.00 0.00 32
20260504041320 95 0.0 0.0 0.00 0.00 0.00 26
20260504040320 93 0.0 0.0 0.00 0.00 0.00 25
20260504035320 95 0.0 0.0 0.00 0.00 0.00 25
20260504034320 91 0.0 0.0 0.00 0.00 0.00 34
20260504033320 91 0.0 0.0 0.00 0.00 0.00 34
20260504032320 90 0.0 0.0 0.00 0.00 0.00 38
20260504031320 89 0.0 0.0 0.00 0.00 0.00 39
20260504030320 88 0.0 0.0 0.00 0.00 0.00 41
20260504025320 88 0.0 0.0 0.00 0.00 0.00 42
20260504024320 87 0.0 0.0 0.00 0.00 0.00 43
20260504023320 88 0.0 0.0 0.00 0.00 0.00 43
20260504022320 86 0.0 0.0 0.00 0.00 0.00 43
20260504021320 86 0.0 0.0 0.00 0.00 0.00 44
20260504020320 86 0.0 0.0 0.00 0.00 0.00 46
20260504015320 84 0.0 0.0 0.00 0.00 0.00 49
20260504014320 84 0.0 0.0 0.00 0.00 0.00 50
20260504013320 84 0.0 0.0 0.00 0.00 0.00 51
20260504012320 84 0.0 0.0 0.00 0.00 0.00 51
20260504011320 84 0.0 0.0 0.00 0.00 0.00 51
20260504010320 84 0.0 0.0 0.00 0.00 0.00 52
20260504005320 82 0.0 0.0 0.00 0.00 0.00 56
20260504004320 83 0.0 0.0 0.00 0.00 0.00 56
20260504003320 82 0.0 0.0 0.00 0.00 0.00 57
20260504002320 83 0.0 0.0 0.00 0.00 0.00 57
20260504001320 82 0.0 0.0 0.00 0.00 0.00 59
20260504000320 82 0.0 0.0 0.00 0.00 0.00 60
20260503235320 82 0.0 0.0 0.00 0.00 0.00 57
20260503234320 83 0.0 0.0 0.00 0.00 0.00 57
20260503233320 82 0.0 0.0 0.00 0.00 0.00 59
20260503232320 81 0.0 0.0 0.00 0.00 0.00 61
20260503231320 81 0.0 0.0 0.00 0.00 0.00 62
20260503230320 80 0.0 0.0 0.00 0.00 0.00 63
20260503225320 81 0.0 0.0 0.00 0.00 0.00 62
20260503224320 81 0.0 0.0 0.00 0.00 0.00 62
20260503223319 81 0.0 0.0 0.00 0.00 0.00 64
20260503222320 81 0.0 0.0 0.00 0.00 0.00 62
20260503221319 81 0.0 0.0 0.00 0.00 0.00 63
20260503220319 81 0.0 0.0 0.00 0.00 0.00 65
20260503215319 80 0.0 0.0 0.00 0.00 0.00 77
20260503214319 78 0.0 0.0 0.00 0.00 0.00 77